SWR74 LSZH-LSGG

Flight info

Callsign SWR74
Flight time 0h 27m
Altitude 18000
Route VEBIT T50 ROTOS Z669 ULMES
Aircraft A333/H-SDE3GHIJ2J3J5M1RVWXY/LB2D1

Departure

Time 2026-05-01 12:05
Airport Zürich Airport (LSZH)

Arrival

Time 2026-05-01 12:32
Airport Geneva International Airport (LSGG)
Time Latitude Longitude Altitude Speed Heading
2026-05-01 11:42 47.46060 8.55298 1400 ft 0 kts
2026-05-01 11:56 47.46050 8.55297 1400 ft 4 kts
2026-05-01 11:57 47.46023 8.55292 1399 ft 4 kts
2026-05-01 11:57 47.46009 8.55290 1400 ft 2 kts
2026-05-01 11:57 47.45983 8.55274 1400 ft 4 kts 79°
2026-05-01 11:57 47.45984 8.55239 1399 ft 4 kts 96°
2026-05-01 11:58 47.45985 8.55213 1399 ft 1 kts 96°
2026-05-01 11:58 47.45981 8.55266 1400 ft 12 kts 96°
2026-05-01 11:59 47.45969 8.55434 1402 ft 17 kts 96°
2026-05-01 11:59 47.45957 8.55605 1405 ft 16 kts 97°
2026-05-01 11:59 47.45945 8.55766 1408 ft 16 kts 95°
2026-05-01 12:00 47.45928 8.55993 1411 ft 16 kts 97°
2026-05-01 12:00 47.45918 8.56157 1414 ft 20 kts 96°
2026-05-01 12:00 47.45818 8.56527 1422 ft 17 kts 127°
2026-05-01 12:01 47.45790 8.56671 1423 ft 13 kts 95°
2026-05-01 12:01 47.45778 8.56862 1426 ft 21 kts 96°
2026-05-01 12:01 47.45742 8.57014 1429 ft 9 kts 146°
2026-05-01 12:01 47.45688 8.57019 1428 ft 12 kts 193°
2026-05-01 12:02 47.45665 8.56982 1428 ft 0 kts 275°
2026-05-01 12:02 47.45665 8.56981 1428 ft 0 kts 276°
2026-05-01 12:04 47.45667 8.56951 1428 ft 14 kts 276°
2026-05-01 12:05 47.45703 8.56451 1420 ft 87 kts 276°
2026-05-01 12:05 47.45921 8.53462 2085 ft 182 kts 276°
2026-05-01 12:05 47.46071 8.51518 3250 ft 200 kts 275°
2026-05-01 12:06 47.46207 8.49436 4088 ft 209 kts 273°
2026-05-01 12:06 47.45980 8.47272 4590 ft 224 kts 242°
2026-05-01 12:06 47.44907 8.45632 5511 ft 222 kts 219°
2026-05-01 12:06 47.43751 8.44148 6543 ft 219 kts 225°
2026-05-01 12:07 47.42755 8.42428 7376 ft 221 kts 232°
2026-05-01 12:07 47.41822 8.40590 7494 ft 224 kts 234°
2026-05-01 12:07 47.40925 8.38735 7491 ft 226 kts 234°
2026-05-01 12:07 47.40017 8.36834 7547 ft 226 kts 234°
2026-05-01 12:08 47.39121 8.34896 8044 ft 232 kts 238°
2026-05-01 12:08 47.38321 8.32812 9020 ft 233 kts 242°
2026-05-01 12:08 47.37564 8.30697 10054 ft 233 kts 242°
2026-05-01 12:08 47.36810 8.28565 10989 ft 236 kts 242°
2026-05-01 12:09 47.36306 8.27139 11568 ft 238 kts 242°
2026-05-01 12:09 47.35533 8.24955 12410 ft 242 kts 242°
2026-05-01 12:09 47.34742 8.22727 13214 ft 246 kts 242°
2026-05-01 12:09 47.33941 8.20473 13978 ft 250 kts 242°
2026-05-01 12:10 47.33127 8.18183 14720 ft 254 kts 242°
2026-05-01 12:10 47.31464 8.13511 16112 ft 261 kts 242°
2026-05-01 12:10 47.30628 8.11158 16771 ft 264 kts 242°
2026-05-01 12:11 47.28899 8.06300 17859 ft 270 kts 242°
2026-05-01 12:11 47.28018 8.03828 17996 ft 278 kts 242°
2026-05-01 12:11 47.27081 8.01164 17994 ft 306 kts 244°
2026-05-01 12:12 47.26147 7.98205 17988 ft 331 kts 246°
2026-05-01 12:12 47.25215 7.94987 17989 ft 353 kts 247°
2026-05-01 12:12 47.24262 7.91550 17989 ft 371 kts 248°
2026-05-01 12:12 47.23284 7.87970 17991 ft 385 kts 248°
2026-05-01 12:13 47.22266 7.84256 17991 ft 393 kts 248°
2026-05-01 12:13 47.21229 7.80503 17994 ft 400 kts 248°
2026-05-01 12:13 47.20193 7.76763 18002 ft 389 kts 248°
2026-05-01 12:13 47.19044 7.73215 18005 ft 382 kts 238°
2026-05-01 12:14 47.17585 7.69975 18003 ft 380 kts 235°
2026-05-01 12:14 47.16025 7.66844 18000 ft 380 kts 232°
2026-05-01 12:14 47.14402 7.63782 17999 ft 380 kts 231°
2026-05-01 12:14 47.12746 7.60750 18001 ft 380 kts 231°
2026-05-01 12:15 47.11084 7.57736 18000 ft 380 kts 231°
2026-05-01 12:15 47.09421 7.54718 18000 ft 380 kts 231°
2026-05-01 12:15 47.07786 7.51736 18000 ft 380 kts 231°
2026-05-01 12:15 47.06134 7.48713 18000 ft 380 kts 231°
2026-05-01 12:16 47.04484 7.45685 18000 ft 380 kts 231°
2026-05-01 12:16 47.02832 7.42649 17999 ft 380 kts 231°
2026-05-01 12:16 47.01180 7.39621 17999 ft 380 kts 231°
2026-05-01 12:16 46.99525 7.36594 17999 ft 380 kts 231°
2026-05-01 12:17 46.97867 7.33567 18000 ft 380 kts 231°
2026-05-01 12:17 46.96229 7.30584 17999 ft 380 kts 231°
2026-05-01 12:17 46.94554 7.27587 18000 ft 380 kts 230°
2026-05-01 12:17 46.92861 7.24602 18000 ft 380 kts 230°
2026-05-01 12:18 46.91171 7.21631 18000 ft 380 kts 230°
2026-05-01 12:18 46.89477 7.18658 18000 ft 380 kts 230°
2026-05-01 12:18 46.87786 7.15690 17998 ft 379 kts 230°
2026-05-01 12:18 46.86122 7.12774 17791 ft 367 kts 230°
2026-05-01 12:19 46.84499 7.09931 17270 ft 363 kts 230°
2026-05-01 12:19 46.82885 7.07107 16710 ft 361 kts 230°
2026-05-01 12:19 46.81282 7.04305 16215 ft 357 kts 230°
2026-05-01 12:19 46.79715 7.01568 15724 ft 353 kts 230°
2026-05-01 12:20 46.78126 6.98796 15217 ft 350 kts 230°
2026-05-01 12:20 46.76574 6.96091 14721 ft 346 kts 230°
2026-05-01 12:20 46.75039 6.93418 14230 ft 342 kts 230°
2026-05-01 12:20 46.73517 6.90769 13437 ft 348 kts 230°
2026-05-01 12:21 46.71950 6.88044 12550 ft 354 kts 230°
2026-05-01 12:21 46.70361 6.85285 11965 ft 352 kts 230°
2026-05-01 12:21 46.68817 6.82606 11750 ft 338 kts 230°
2026-05-01 12:21 46.67340 6.80045 11666 ft 321 kts 230°
2026-05-01 12:22 46.65943 6.77625 11674 ft 303 kts 230°
2026-05-01 12:22 46.64628 6.75346 11684 ft 286 kts 230°
2026-05-01 12:22 46.63379 6.73186 11618 ft 273 kts 230°
2026-05-01 12:22 46.63207 6.72890 11604 ft 271 kts 230°
2026-05-01 12:23 46.63172 6.72830 11602 ft 271 kts 230°
2026-05-01 12:23 46.61980 6.70774 11492 ft 261 kts 230°
2026-05-01 12:23 46.60818 6.68772 11272 ft 257 kts 230°
2026-05-01 12:23 46.59672 6.66792 11016 ft 255 kts 230°
2026-05-01 12:24 46.58529 6.64823 10736 ft 254 kts 230°
2026-05-01 12:24 46.57385 6.62855 10357 ft 257 kts 230°
2026-05-01 12:24 46.56209 6.60830 9770 ft 267 kts 230°
2026-05-01 12:24 46.54999 6.58749 9302 ft 271 kts 230°
2026-05-01 12:25 46.53774 6.56645 8846 ft 274 kts 230°
2026-05-01 12:25 46.51313 6.52421 8049 ft 274 kts 230°
2026-05-01 12:25 46.50108 6.50356 7935 ft 263 kts 230°
2026-05-01 12:26 46.48934 6.48343 7566 ft 262 kts 230°
2026-05-01 12:26 46.46484 6.44278 6559 ft 271 kts 226°
2026-05-01 12:26 46.45165 6.42305 6055 ft 274 kts 225°
2026-05-01 12:27 46.43817 6.40323 5551 ft 277 kts 225°
2026-05-01 12:27 46.41089 6.36328 4544 ft 280 kts 225°
2026-05-01 12:28 46.38351 6.32320 3753 ft 274 kts 225°
2026-05-01 12:28 46.37050 6.30404 3705 ft 258 kts 225°
2026-05-01 12:28 46.34709 6.26937 3719 ft 226 kts 225°
2026-05-01 12:29 46.33646 6.25372 3719 ft 209 kts 225°
2026-05-01 12:29 46.32655 6.23915 3550 ft 199 kts 225°
2026-05-01 12:29 46.30844 6.21249 3023 ft 170 kts 225°
2026-05-01 12:30 46.29324 6.19010 2588 ft 143 kts 225°
2026-05-01 12:30 46.28642 6.18007 2405 ft 139 kts 225°
2026-05-01 12:30 46.27964 6.17018 2223 ft 139 kts 225°
2026-05-01 12:31 46.27281 6.16027 2039 ft 139 kts 226°
2026-05-01 12:31 46.26621 6.15040 1844 ft 138 kts 226°
2026-05-01 12:31 46.25959 6.14040 1660 ft 137 kts 226°
2026-05-01 12:31 46.25293 6.13071 1486 ft 134 kts 224°
2026-05-01 12:32 46.24643 6.12134 1377 ft 124 kts 229°
2026-05-01 12:32 46.23972 6.11138 1383 ft 17 kts 225°
2026-05-01 12:32 46.23856 6.11069 1383 ft 18 kts 180°
2026-05-01 12:33 46.23745 6.11083 1388 ft 13 kts 184°
2026-05-01 12:33 46.23687 6.11068 1393 ft 6 kts 187°
2026-05-01 12:33 46.23660 6.11062 1395 ft 3 kts 187°
2026-05-01 12:33 46.23644 6.11059 1395 ft 2 kts 187°
2026-05-01 12:34 46.23634 6.11059 1396 ft 2 kts 179°